Location: Wildlife_Club
(35.6000°N, 81.4330°W)
Time: 00:59:07
(UTC-04:00)

A-11 Canister half - Pass Details

Date: 29 June 2019
Orbit: 1514 x 1685 km, 47.2° (Epoch: 19 July)

Event Time Altitude Azimuth Distance (km) Brightness Sun altitude
Rises 12:47:24 0° 283° (WNW) 4,905 11.5 74.6°
Reaches altitude 10° 12:50:54 10° 290° (WNW) 3,900 11.1 75.1°
Maximum altitude 13:00:11 42° 359° (N) 2,181 10.3 76.1°
Drops below altitude 10° 13:09:10 10° 68° (ENE) 3,773 11.2 76.9°
Sets 13:12:29 0° 76° (ENE) 4,734 11.6 77.1°
